Flag for Germany Weather past 2 weeks in Schwerin, Mecklenburg-Western Pomerania, Germany

Now
69 °F

Scattered clouds.


Feels Like: 69 °F
Forecast: 56 / 74 °F
Wind: 5 mph from East

Location: Schwerin

Current Time: Sep 17, 2014 at 7:34:57 PM

Latest Report: Sep 17, 2014 at 7:00 PM


Visibility: 8 mi

Pressure: 30.01 "Hg

Humidity: 64%

Dew point: 56 °F

Location of SchwerinLocation

Historic Weather in Schwerin — Graph

°F

Schwerin temperature yesterday

Maximum temperature yesterday: 74 °F (at 3:00 PM)
Minimum temperature yesterday: 58 °F (at 7:00 AM)
Average temperature yesterday: 65 °F

Past Weeks' High & Low Weather Summary

 TemperatureHumidityPressure
High80 °F (Sep 6, 3:00 PM)100% (Sep 8, 6:00 AM)30.34 "Hg (Sep 8, 6:00 AM)
Low50 °F (Sep 11, 7:00 AM)39% (Sep 6, 3:00 PM)29.85 "Hg (Sep 6, 6:00 PM)
Average63 °F79%30.09 "Hg
* Reported Sep 2 6:00 PM — Sep 17 6:00 PM, Schwerin, Weather by CustomWeather, © 2014

Note: Actual official high and low records may vary slightly from our data, if they occured in-between our weather recording intervals... More about our weather records

Advertising

Schwerin weather history for previous 24 hours

 ConditionsComfort  
Time TempWeatherWind HumidityBarometerVisibility
6:00 PM
Sep 17
71 °FScattered clouds.3 mph60%30.01 "Hg9 mi
5:00 PM72 °FOvercast.3 mph58%30.01 "Hg9 mi
4:00 PM72 °FPassing clouds.5 mph56%30.02 "Hg11 mi
3:00 PM72 °FPassing clouds.5 mph54%30.03 "Hg12 mi
2:00 PM72 °FSunny.6 mph55%30.04 "Hg14 mi
1:00 PM71 °FPassing clouds.6 mph56%30.06 "Hg11 mi
12:00 PM69 °FPartly sunny.5 mph60%30.06 "Hg12 mi
10:00 AM62 °FPassing clouds.3 mph75%30.09 "Hg11 mi
9:00 AM59 °FPartly sunny.3 mph80%30.09 "Hg10 mi
8:00 AM57 °FPassing clouds.3 mph86%30.09 "Hg9 mi
7:00 AM56 °FPartly sunny.2 mph88%30.09 "Hg9 mi
6:00 AM57 °FPassing clouds.3 mph86%30.08 "Hg10 mi
4:00 AM57 °FOvercast.3 mph87%30.09 "Hg11 mi
3:00 AM58 °FPassing clouds.2 mph86%30.10 "Hg12 mi
2:00 AM59 °FPassing clouds.3 mph85%30.11 "Hg14 mi
1:00 AM60 °FPassing clouds.3 mph82%30.11 "Hg16 mi
12:00 AM61 °FPassing clouds.3 mph79%30.11 "Hg19 mi
11:00 PM
Sep 16
62 °FOvercast.3 mph77%30.11 "Hg17 mi
10:00 PM64 °FPassing clouds.3 mph76%30.11 "Hg16 mi
9:00 PM66 °FOvercast.3 mph72%30.10 "Hg12 mi
8:00 PM69 °FOvercast.5 mph65%30.09 "Hg10 mi
7:00 PM71 °FScattered clouds.5 mph62%30.08 "Hg9 mi
Weather by CustomWeather, © 2014

See weather overviewHow to use our weather pages